| time (UTC) | temp C | wind direction | speed KPH | gust KPH | rain 1hr cm | rain 24hr cm | rain mn cm | humidity % | barometer mb |
| 20260504215017 | 21 | 315 | 0.0 | 1.6 | 0.00 | 0.00 | 0.00 | 25 | 1011.6 |
| 20260504214015 | 21 | 50 | 1.6 | 6.4 | 0.00 | 0.00 | 0.00 | 25 | 1011.7 |
| 20260504213015 | 22 | 57 | 1.6 | 4.8 | 0.00 | 0.00 | 0.00 | 24 | 1011.8 |
| 20260504211516 | 22 | 53 | 1.6 | 6.4 | 0.00 | 0.00 | 0.00 | 24 | 1012.0 |
| 20260504210516 | 22 | 92 | 1.6 | 4.8 | 0.00 | 0.00 | 0.00 | 25 | 1012.1 |
| 20260504205517 | 23 | 97 | 1.6 | 12.9 | 0.00 | 0.00 | 0.00 | 24 | 1012.1 |
| 20260504204517 | 23 | 68 | 1.6 | 4.8 | 0.00 | 0.00 | 0.00 | 25 | 1012.2 |
| 20260504203515 | 22 | 81 | 1.6 | 6.4 | 0.00 | 0.00 | 0.00 | 26 | 1012.3 |
| 20260504202515 | 22 | 22 | 1.6 | 8.0 | 0.00 | 0.00 | 0.00 | 25 | 1012.4 |
| 20260504201535 | 21 | 344 | 1.6 | 4.8 | 0.00 | 0.00 | 0.00 | 25 | 1012.4 |
| 20260504200516 | 21 | 314 | 1.6 | 6.4 | 0.00 | 0.00 | 0.00 | 25 | 1012.5 |
| 20260504195517 | 21 | 57 | 1.6 | 6.4 | 0.00 | 0.00 | 0.00 | 26 | 1012.5 |
| 20260504194517 | 21 | 289 | 3.2 | 12.9 | 0.00 | 0.00 | 0.00 | 26 | 1012.4 |
| 20260504193537 | 20 | 285 | 3.2 | 12.9 | 0.00 | 0.00 | 0.00 | 26 | 1012.5 |
| 20260504192535 | 20 | 39 | 1.6 | 8.0 | 0.00 | 0.00 | 0.00 | 26 | 1012.5 |
| 20260504191515 | 20 | 334 | 1.6 | 11.3 | 0.00 | 0.00 | 0.00 | 26 | 1012.5 |
| 20260504190515 | 20 | 347 | 3.2 | 11.3 | 0.00 | 0.00 | 0.00 | 25 | 1012.5 |
| 20260504185516 | 20 | 67 | 1.6 | 3.2 | 0.00 | 0.00 | 0.00 | 24 | 1012.5 |
| 20260504184536 | 21 | 100 | 0.0 | 3.2 | 0.00 | 0.00 | 0.00 | 23 | 1012.5 |
| 20260504183517 | 21 | 46 | 1.6 | 9.7 | 0.00 | 0.00 | 0.00 | 23 | 1012.5 |
| 20260504182517 | 22 | 2 | 0.0 | 1.6 | 0.00 | 0.00 | 0.00 | 23 | 1012.6 |
| 20260504181515 | 22 | 26 | 1.6 | 6.4 | 0.00 | 0.00 | 0.00 | 21 | 1012.7 |
| 20260504180515 | 23 | 260 | 0.0 | 3.2 | 0.00 | 0.00 | 0.00 | 22 | 1012.7 |
| 20260504175516 | 23 | 61 | 1.6 | 8.0 | 0.00 | 0.00 | 0.00 | 22 | 1012.8 |
| 20260504174516 | 22 | 125 | 1.6 | 11.3 | 0.00 | 0.00 | 0.00 | 22 | 1013.0 |
| 20260504173517 | 22 | 90 | 1.6 | 3.2 | 0.00 | 0.00 | 0.00 | 22 | 1013.2 |
| 20260504172517 | 22 | 193 | 1.6 | 4.8 | 0.00 | 0.00 | 0.00 | 24 | 1013.3 |
| 20260504171535 | 22 | 251 | 0.0 | 4.8 | 0.00 | 0.00 | 0.00 | 23 | 1013.5 |
| 20260504170515 | 21 | 112 | 1.6 | 4.8 | 0.00 | 0.00 | 0.00 | 24 | 1013.6 |
| 20260504150517 | 17 | 206 | 1.6 | 8.0 | 0.00 | 0.00 | 0.00 | 29 | 1014.5 |
| 20260504140517 | 13 | 284 | 0.0 | 3.2 | 0.00 | 0.00 | 0.00 | 40 | 1014.4 |
| 20260504130516 | 10 | 131 | 1.6 | 3.2 | 0.00 | 0.00 | 0.00 | 44 | 1014.3 |
| 20260504110536 | 8 | 135 | 1.6 | 6.4 | 0.00 | 0.00 | 0.00 | 48 | 1014.3 |
| 20260504100536 | 8 | 134 | 1.6 | 4.8 | 0.00 | 0.00 | 0.00 | 49 | 1014.6 |
| 20260504081517 | 9 | 0.0 | 0.0 | 0.00 | 0.00 | 0.00 | 49 | 1015.5 | |
| 20260504080515 | 8 | 129 | 0.0 | 1.6 | 0.00 | 0.00 | 0.00 | 51 | 1015.5 |
| 20260504050516 | 12 | 134 | 1.6 | 3.2 | 0.00 | 0.00 | 0.00 | 41 | 1016.1 |
| 20260504045517 | 12 | 126 | 0.0 | 3.2 | 0.00 | 0.00 | 0.00 | 41 | 1016.2 |
| 20260504044515 | 13 | 125 | 0.0 | 1.6 | 0.00 | 0.00 | 0.00 | 41 | 1016.4 |
| 20260504043515 | 13 | 128 | 0.0 | 1.6 | 0.00 | 0.00 | 0.00 | 41 | 1016.5 |
| 20260504042515 | 13 | 133 | 1.6 | 4.8 | 0.00 | 0.00 | 0.00 | 40 | 1016.5 |
| 20260504041516 | 13 | 133 | 3.2 | 4.8 | 0.00 | 0.00 | 0.00 | 39 | 1016.5 |
| 20260504040516 | 13 | 133 | 1.6 | 3.2 | 0.00 | 0.00 | 0.00 | 39 | 1016.6 |
| 20260504035516 | 13 | 136 | 1.6 | 3.2 | 0.00 | 0.00 | 0.00 | 40 | 1016.8 |
| 20260504034517 | 14 | 140 | 0.0 | 3.2 | 0.00 | 0.00 | 0.00 | 40 | 1016.7 |
| 20260504033514 | 14 | 65 | 0.0 | 1.6 | 0.00 | 0.00 | 0.00 | 38 | 1016.6 |
| 20260504032515 | 14 | 0.0 | 0.0 | 0.00 | 0.00 | 0.00 | 37 | 1016.7 | |
| 20260504031515 | 15 | 0.0 | 0.0 | 0.00 | 0.00 | 0.00 | 36 | 1016.7 | |
| 20260504030536 | 15 | 0.0 | 0.0 | 0.00 | 0.00 | 0.00 | 35 | 1016.6 | |
| 20260504025516 | 15 | 0.0 | 0.0 | 0.00 | 0.00 | 0.00 | 35 | 1016.6 | |
| 20260504024517 | 15 | 0.0 | 0.0 | 0.00 | 0.00 | 0.00 | 34 | 1016.5 | |
| 20260504023517 | 15 | 0.0 | 0.0 | 0.00 | 0.00 | 0.00 | 33 | 1016.5 | |
| 20260504022515 | 15 | 0.0 | 0.0 | 0.00 | 0.00 | 0.00 | 33 | 1016.6 | |
| 20260504021515 | 16 | 48 | 0.0 | 1.6 | 0.00 | 0.00 | 0.00 | 32 | 1016.5 |
| 20260504020535 | 16 | 50 | 0.0 | 1.6 | 0.00 | 0.00 | 0.00 | 32 | 1016.5 |
| 20260504015516 | 16 | 0.0 | 0.0 | 0.00 | 0.00 | 0.00 | 31 | 1016.3 | |
| 20260504014516 | 17 | 0.0 | 0.0 | 0.00 | 0.00 | 0.00 | 30 | 1016.3 | |
| 20260504013537 | 17 | 0.0 | 0.0 | 0.00 | 0.00 | 0.00 | 30 | 1016.3 | |
| 20260504012537 | 17 | 278 | 0.0 | 3.2 | 0.00 | 0.00 | 0.00 | 29 | 1016.3 |
| 20260504011555 | 17 | 290 | 0.0 | 3.2 | 0.00 | 0.00 | 0.00 | 29 | 1016.2 |
| 20260504010515 | 18 | 50 | 0.0 | 6.4 | 0.00 | 0.00 | 0.00 | 28 | 1016.2 |
| 20260504005516 | 18 | 2 | 1.6 | 6.4 | 0.00 | 0.00 | 0.00 | 27 | 1016.2 |
| 20260504004516 | 18 | 17 | 0.0 | 4.8 | 0.00 | 0.00 | 0.00 | 27 | 1016.1 |
| 20260504003516 | 18 | 92 | 0.0 | 4.8 | 0.00 | 0.00 | 0.00 | 27 | 1016.1 |
| 20260504002517 | 19 | 1 | 1.6 | 4.8 | 0.00 | 0.00 | 0.00 | 26 | 1016.1 |
| 20260504001517 | 20 | 39 | 0.0 | 3.2 | 0.00 | 0.00 | 0.00 | 25 | 1016.0 |
| 20260504000515 | 20 | 32 | 1.6 | 8.0 | 0.00 | 0.00 | 0.00 | 23 | 1015.9 |
| 20260503235515 | 21 | 352 | 0.0 | 3.2 | 0.00 | 0.00 | 0.00 | 21 | 1016.0 |
| 20260503234536 | 21 | 50 | 1.6 | 4.8 | 0.00 | 0.00 | 0.00 | 21 | 1016.1 |
| 20260503233536 | 21 | 46 | 0.0 | 4.8 | 0.00 | 0.00 | 0.00 | 21 | 1016.1 |
| 20260503232516 | 21 | 337 | 1.6 | 4.8 | 0.00 | 0.00 | 0.00 | 20 | 1016.0 |
| 20260503231517 | 22 | 355 | 1.6 | 6.4 | 0.00 | 0.00 | 0.00 | 19 | 1016.0 |
| 20260503230514 | 22 | 11 | 0.0 | 3.2 | 0.00 | 0.00 | 0.00 | 18 | 1016.0 |
| 20260503225515 | 22 | 5 | 1.6 | 4.8 | 0.00 | 0.00 | 0.00 | 18 | 1016.0 |
| 20260503224535 | 22 | 343 | 1.6 | 4.8 | 0.00 | 0.00 | 0.00 | 18 | 1016.0 |
| 20260503223516 | 22 | 50 | 0.0 | 3.2 | 0.00 | 0.00 | 0.00 | 18 | 1016.1 |
| 20260503222516 | 22 | 215 | 0.0 | 4.8 | 0.00 | 0.00 | 0.00 | 18 | 1016.2 |
| 20260503221536 | 22 | 230 | 0.0 | 6.4 | 0.00 | 0.00 | 0.00 | 18 | 1016.4 |
| 20260503220517 | 22 | 228 | 0.0 | 4.8 | 0.00 | 0.00 | 0.00 | 17 | 1016.6 |
| 20260503215515 | 22 | 160 | 0.0 | 3.2 | 0.00 | 0.00 | 0.00 | 18 | 1016.7 |